Location: Bukit Nyuki
(2.5885°N, 113.7476°E)
Time: 14:13:25
(UTC+00:00)

Cosmos 2084 - Pass Details

Date: 18 May 2021
Orbit: 542 x 639 km, 62.8° (Epoch: 16 June)

Event Time Altitude Azimuth Distance (km) Brightness Sun altitude
Rises 21:26:19 0° 322° (NW) 2,913 6.8 -12.1°
Reaches altitude 10° 21:28:43 10° 314° (NW) 2,014 5.9 -11.5°
Maximum altitude 21:32:58 38° 247° (WSW) 976 4.1 -10.5°
Drops below altitude 10° 21:37:14 10° 178° (S) 2,022 6.0 -9.5°
Sets 21:39:39 0° 170° (S) 2,927 6.9 -8.9°
